| time (UTC) | temp F | wind direction | speed MPH | gust MPH | rain 1hr in | rain 24hr in | rain mn in | humidity % | barometer mb |
| 20260510234033 | 78 | 306 | 0.0 | 2.0 | 0.00 | 0.00 | 0.00 | 37 | 1016.0 |
| 20260510233531 | 78 | 0 | 0.0 | 3.0 | 0.00 | 0.00 | 0.00 | 35 | 1015.9 |
| 20260510233050 | 79 | 309 | 0.0 | 4.0 | 0.00 | 0.00 | 0.00 | 36 | 1015.9 |
| 20260510232528 | 79 | 304 | 1.0 | 4.0 | 0.00 | 0.00 | 0.00 | 35 | 1016.0 |
| 20260510232028 | 79 | 0 | 0.0 | 3.0 | 0.00 | 0.00 | 0.00 | 35 | 1016.0 |
| 20260510231550 | 79 | 0 | 0.0 | 3.0 | 0.00 | 0.00 | 0.00 | 36 | 1016.0 |
| 20260510231031 | 79 | 0 | 0.0 | 3.0 | 0.00 | 0.00 | 0.00 | 35 | 1015.9 |
| 20260510230528 | 79 | 331 | 1.0 | 6.0 | 0.00 | 0.00 | 0.00 | 34 | 1016.0 |
| 20260510230049 | 79 | 0 | 0.0 | 6.0 | 0.00 | 0.00 | 0.00 | 35 | 1016.0 |
| 20260510225528 | 80 | 329 | 1.0 | 6.0 | 0.00 | 0.00 | 0.00 | 35 | 1015.9 |
| 20260510225028 | 80 | 279 | 0.0 | 3.0 | 0.00 | 0.00 | 0.00 | 36 | 1016.0 |
| 20260510224548 | 80 | 215 | 0.0 | 6.0 | 0.00 | 0.00 | 0.00 | 37 | 1015.9 |
| 20260510224032 | 80 | 221 | 1.0 | 6.0 | 0.00 | 0.00 | 0.00 | 37 | 1015.9 |
| 20260510223531 | 80 | 309 | 0.0 | 5.0 | 0.00 | 0.00 | 0.00 | 38 | 1015.9 |
| 20260510223050 | 80 | 347 | 1.0 | 6.0 | 0.00 | 0.00 | 0.00 | 37 | 1015.9 |
| 20260510222533 | 80 | 340 | 1.0 | 6.0 | 0.00 | 0.00 | 0.00 | 38 | 1016.0 |
| 20260510222029 | 80 | 345 | 2.0 | 7.0 | 0.00 | 0.00 | 0.00 | 38 | 1015.9 |
| 20260510221542 | 80 | 333 | 3.0 | 9.0 | 0.00 | 0.00 | 0.00 | 39 | 1016.0 |
| 20260510221031 | 80 | 325 | 3.0 | 9.0 | 0.00 | 0.00 | 0.00 | 39 | 1016.0 |
| 20260510220532 | 80 | 25 | 2.0 | 6.0 | 0.00 | 0.00 | 0.00 | 39 | 1015.9 |
| 20260510220041 | 80 | 313 | 2.0 | 9.0 | 0.00 | 0.00 | 0.00 | 39 | 1016.0 |
| 20260510215528 | 81 | 13 | 2.0 | 9.0 | 0.00 | 0.00 | 0.00 | 39 | 1016.2 |
| 20260510215028 | 81 | 0 | 2.0 | 9.0 | 0.00 | 0.00 | 0.00 | 39 | 1016.1 |
| 20260510214541 | 81 | 325 | 4.0 | 9.0 | 0.00 | 0.00 | 0.00 | 38 | 1016.0 |
| 20260510214033 | 81 | 313 | 1.0 | 8.0 | 0.00 | 0.00 | 0.00 | 40 | 1016.1 |
| 20260510213528 | 81 | 204 | 3.0 | 8.0 | 0.00 | 0.00 | 0.00 | 39 | 1016.0 |
| 20260510213052 | 81 | 44 | 1.0 | 8.0 | 0.00 | 0.00 | 0.00 | 40 | 1016.1 |
| 20260510212531 | 81 | 337 | 3.0 | 10.0 | 0.00 | 0.00 | 0.00 | 40 | 1016.2 |
| 20260510212032 | 81 | 0 | 3.0 | 10.0 | 0.00 | 0.00 | 0.00 | 39 | 1016.0 |
| 20260510211543 | 81 | 286 | 2.0 | 8.0 | 0.00 | 0.00 | 0.00 | 40 | 1016.2 |
| 20260510211032 | 81 | 352 | 2.0 | 9.0 | 0.00 | 0.00 | 0.00 | 40 | 1016.0 |
| 20260510210529 | 81 | 0 | 2.0 | 9.0 | 0.00 | 0.00 | 0.00 | 42 | 1016.1 |
| 20260510210041 | 81 | 313 | 4.0 | 9.0 | 0.00 | 0.00 | 0.00 | 42 | 1016.0 |
| 20260510205531 | 81 | 360 | 2.0 | 8.0 | 0.00 | 0.00 | 0.00 | 41 | 1016.0 |
| 20260510205030 | 81 | 223 | 2.0 | 8.0 | 0.00 | 0.00 | 0.00 | 43 | 1016.0 |
| 20260510204542 | 81 | 0 | 2.0 | 8.0 | 0.00 | 0.00 | 0.00 | 41 | 1016.0 |
| 20260510204034 | 81 | 282 | 1.0 | 10.0 | 0.00 | 0.00 | 0.00 | 42 | 1016.0 |
| 20260510203531 | 81 | 242 | 3.0 | 10.0 | 0.00 | 0.00 | 0.00 | 41 | 1016.1 |
| 20260510203044 | 81 | 323 | 3.0 | 10.0 | 0.00 | 0.00 | 0.00 | 39 | 1016.0 |
| 20260510202528 | 81 | 350 | 3.0 | 10.0 | 0.00 | 0.00 | 0.00 | 39 | 1016.0 |
| 20260510202027 | 81 | 350 | 3.0 | 8.0 | 0.00 | 0.00 | 0.00 | 39 | 1016.0 |
| 20260510201539 | 81 | 253 | 1.0 | 7.0 | 0.00 | 0.00 | 0.00 | 41 | 1016.0 |
| 20260510201028 | 81 | 0 | 1.0 | 9.0 | 0.00 | 0.00 | 0.00 | 42 | 1016.0 |
| 20260510200528 | 81 | 325 | 2.0 | 9.0 | 0.00 | 0.00 | 0.00 | 42 | 1016.2 |
| 20260510200043 | 81 | 333 | 2.0 | 10.0 | 0.00 | 0.00 | 0.00 | 43 | 1016.2 |
| 20260510195533 | 80 | 316 | 3.0 | 10.0 | 0.00 | 0.00 | 0.00 | 40 | 1016.2 |
| 20260510195031 | 81 | 332 | 4.0 | 10.0 | 0.00 | 0.00 | 0.00 | 40 | 1016.3 |
| 20260510194543 | 80 | 283 | 2.0 | 9.0 | 0.00 | 0.00 | 0.00 | 42 | 1016.2 |
| 20260510194031 | 81 | 5 | 5.0 | 9.0 | 0.00 | 0.00 | 0.00 | 41 | 1016.2 |
| 20260510193532 | 81 | 326 | 2.0 | 6.0 | 0.00 | 0.00 | 0.00 | 41 | 1016.3 |
| 20260510193047 | 80 | 296 | 1.0 | 7.0 | 0.00 | 0.00 | 0.00 | 41 | 1016.3 |
| 20260510192529 | 80 | 302 | 3.0 | 7.0 | 0.00 | 0.00 | 0.00 | 40 | 1016.3 |
| 20260510192032 | 80 | 5 | 2.0 | 9.0 | 0.00 | 0.00 | 0.00 | 42 | 1016.4 |
| 20260510191540 | 80 | 205 | 3.0 | 9.0 | 0.00 | 0.00 | 0.00 | 42 | 1016.5 |
| 20260510191032 | 80 | 0 | 3.0 | 9.0 | 0.00 | 0.00 | 0.00 | 44 | 1016.5 |
| 20260510190532 | 80 | 186 | 3.0 | 9.0 | 0.00 | 0.00 | 0.00 | 46 | 1016.5 |
| 20260510190047 | 80 | 306 | 2.0 | 9.0 | 0.00 | 0.00 | 0.00 | 45 | 1016.6 |
| 20260510185531 | 80 | 0 | 4.0 | 10.0 | 0.00 | 0.00 | 0.00 | 47 | 1016.7 |
| 20260510185027 | 80 | 346 | 4.0 | 10.0 | 0.00 | 0.00 | 0.00 | 46 | 1016.7 |
| 20260510184607 | 80 | 333 | 4.0 | 10.0 | 0.00 | 0.00 | 0.00 | 47 | 1016.7 |
| 20260510184033 | 80 | 263 | 2.0 | 10.0 | 0.00 | 0.00 | 0.00 | 48 | 1016.8 |
| 20260510183528 | 80 | 243 | 4.0 | 9.0 | 0.00 | 0.00 | 0.00 | 47 | 1016.8 |
| 20260510183041 | 80 | 282 | 3.0 | 8.0 | 0.00 | 0.00 | 0.00 | 46 | 1017.0 |
| 20260510182529 | 81 | 295 | 2.0 | 10.0 | 0.00 | 0.00 | 0.00 | 47 | 1016.8 |
| 20260510182031 | 81 | 260 | 4.0 | 10.0 | 0.00 | 0.00 | 0.00 | 47 | 1017.0 |
| 20260510181555 | 81 | 0 | 2.0 | 6.0 | 0.00 | 0.00 | 0.00 | 48 | 1016.9 |
| 20260510181031 | 80 | 324 | 2.0 | 8.0 | 0.00 | 0.00 | 0.00 | 48 | 1016.9 |
| 20260510180531 | 80 | 292 | 2.0 | 8.0 | 0.00 | 0.00 | 0.00 | 49 | 1017.0 |
| 20260510180051 | 80 | 290 | 3.0 | 8.0 | 0.00 | 0.00 | 0.00 | 51 | 1016.9 |
| 20260510175531 | 80 | 254 | 1.0 | 5.0 | 0.00 | 0.00 | 0.00 | 51 | 1016.9 |
| 20260510175031 | 79 | 234 | 2.0 | 5.0 | 0.00 | 0.00 | 0.00 | 52 | 1017.0 |
| 20260510174536 | 79 | 259 | 2.0 | 8.0 | 0.00 | 0.00 | 0.00 | 52 | 1017.0 |
| 20260510174031 | 79 | 255 | 1.0 | 8.0 | 0.00 | 0.00 | 0.00 | 51 | 1017.0 |
| 20260510173527 | 79 | 308 | 3.0 | 10.0 | 0.00 | 0.00 | 0.00 | 49 | 1017.0 |
| 20260510173045 | 79 | 309 | 3.0 | 10.0 | 0.00 | 0.00 | 0.00 | 51 | 1017.0 |
| 20260510172528 | 79 | 280 | 4.0 | 10.0 | 0.00 | 0.00 | 0.00 | 54 | 1017.0 |
| 20260510172030 | 79 | 207 | 2.0 | 8.0 | 0.00 | 0.00 | 0.00 | 55 | 1017.0 |
| 20260510171557 | 78 | 290 | 2.0 | 9.0 | 0.00 | 0.00 | 0.00 | 54 | 1017.1 |
| 20260510171030 | 78 | 238 | 1.0 | 9.0 | 0.00 | 0.00 | 0.00 | 53 | 1017.1 |
| 20260510170529 | 79 | 272 | 3.0 | 9.0 | 0.00 | 0.00 | 0.00 | 55 | 1017.2 |
| 20260510170044 | 79 | 306 | 3.0 | 9.0 | 0.00 | 0.00 | 0.00 | 56 | 1017.2 |
| 20260510165530 | 79 | 324 | 3.0 | 8.0 | 0.00 | 0.00 | 0.00 | 55 | 1017.4 |
| 20260510165031 | 79 | 283 | 4.0 | 9.0 | 0.00 | 0.00 | 0.00 | 57 | 1017.3 |
| 20260510164540 | 79 | 5 | 4.0 | 9.0 | 0.00 | 0.00 | 0.00 | 55 | 1017.4 |
| 20260510164029 | 79 | 280 | 4.0 | 9.0 | 0.00 | 0.00 | 0.00 | 55 | 1017.4 |
| 20260510163532 | 78 | 17 | 0.0 | 8.0 | 0.00 | 0.00 | 0.00 | 55 | 1017.5 |
| 20260510163035 | 78 | 322 | 2.0 | 8.0 | 0.00 | 0.00 | 0.00 | 55 | 1017.5 |
| 20260510162532 | 77 | 338 | 3.0 | 8.0 | 0.00 | 0.00 | 0.00 | 55 | 1017.4 |
| 20260510162030 | 77 | 336 | 0.0 | 5.0 | 0.00 | 0.00 | 0.00 | 55 | 1017.5 |
| 20260510161541 | 77 | 349 | 1.0 | 8.0 | 0.00 | 0.00 | 0.00 | 55 | 1017.5 |
| 20260510161033 | 77 | 15 | 3.0 | 9.0 | 0.00 | 0.00 | 0.00 | 54 | 1017.5 |
| 20260510160529 | 77 | 320 | 4.0 | 9.0 | 0.00 | 0.00 | 0.00 | 55 | 1017.4 |
| 20260510160048 | 77 | 262 | 1.0 | 5.0 | 0.00 | 0.00 | 0.00 | 57 | 1017.4 |
| 20260510155535 | 76 | 351 | 1.0 | 6.0 | 0.00 | 0.00 | 0.00 | 58 | 1017.5 |
| 20260510155033 | 77 | 301 | 3.0 | 6.0 | 0.00 | 0.00 | 0.00 | 60 | 1017.5 |
| 20260510154558 | 76 | 74 | 1.0 | 8.0 | 0.00 | 0.00 | 0.00 | 61 | 1017.6 |
| 20260510154035 | 76 | 89 | 2.0 | 8.0 | 0.00 | 0.00 | 0.00 | 62 | 1017.6 |
| 20260510153534 | 76 | 309 | 2.0 | 8.0 | 0.00 | 0.00 | 0.00 | 61 | 1017.7 |
| 20260510153100 | 76 | 47 | 3.0 | 7.0 | 0.00 | 0.00 | 0.00 | 62 | 1017.7 |
| 20260510152531 | 75 | 312 | 3.0 | 7.0 | 0.00 | 0.00 | 0.00 | 64 | 1017.8 |
| 20260510152032 | 75 | 360 | 2.0 | 8.0 | 0.00 | 0.00 | 0.00 | 64 | 1017.8 |
| 20260510151543 | 75 | 0 | 2.0 | 8.0 | 0.00 | 0.00 | 0.00 | 65 | 1017.7 |
| 20260510151031 | 75 | 294 | 2.0 | 7.0 | 0.00 | 0.00 | 0.00 | 67 | 1017.6 |
| 20260510150533 | 75 | 266 | 3.0 | 8.0 | 0.00 | 0.00 | 0.00 | 68 | 1017.7 |
| 20260510145534 | 74 | 346 | 2.0 | 8.0 | 0.00 | 0.00 | 0.00 | 71 | 1017.7 |
| 20260510145032 | 73 | 5 | 2.0 | 8.0 | 0.00 | 0.00 | 0.00 | 70 | 1017.8 |
| 20260510144557 | 73 | 360 | 2.0 | 8.0 | 0.00 | 0.00 | 0.00 | 72 | 1017.8 |
| 20260510144036 | 72 | 321 | 4.0 | 8.0 | 0.00 | 0.00 | 0.00 | 73 | 1017.8 |
| 20260510143533 | 72 | 21 | 2.0 | 7.0 | 0.00 | 0.00 | 0.00 | 74 | 1017.7 |
| 20260510143039 | 71 | 304 | 2.0 | 6.0 | 0.00 | 0.00 | 0.00 | 75 | 1017.7 |
| 20260510142532 | 71 | 27 | 1.0 | 8.0 | 0.00 | 0.00 | 0.00 | 77 | 1017.6 |
| 20260510142033 | 71 | 30 | 3.0 | 8.0 | 0.00 | 0.00 | 0.00 | 77 | 1017.6 |
| 20260510141547 | 70 | 311 | 4.0 | 8.0 | 0.00 | 0.00 | 0.00 | 78 | 1017.6 |
| 20260510141032 | 70 | 313 | 3.0 | 7.0 | 0.00 | 0.00 | 0.00 | 79 | 1017.5 |
| 20260510140531 | 69 | 17 | 2.0 | 5.0 | 0.00 | 0.00 | 0.00 | 81 | 1017.5 |
| 20260510140035 | 69 | 11 | 2.0 | 5.0 | 0.00 | 0.00 | 0.00 | 82 | 1017.4 |
| 20260510135530 | 68 | 315 | 0.0 | 3.0 | 0.00 | 0.00 | 0.00 | 83 | 1017.3 |
| 20260510135034 | 68 | 94 | 0.0 | 4.0 | 0.00 | 0.00 | 0.00 | 83 | 1017.2 |
| 20260510134549 | 68 | 54 | 1.0 | 5.0 | 0.00 | 0.00 | 0.00 | 84 | 1017.2 |
| 20260510134029 | 67 | 12 | 2.0 | 5.0 | 0.00 | 0.00 | 0.00 | 85 | 1017.2 |
| 20260510133529 | 66 | 304 | 2.0 | 4.0 | 0.00 | 0.00 | 0.00 | 86 | 1017.2 |
| 20260510133041 | 66 | 0 | 0.0 | 5.0 | 0.00 | 0.00 | 0.00 | 87 | 1017.3 |
| 20260510132530 | 66 | 309 | 1.0 | 5.0 | 0.00 | 0.00 | 0.00 | 87 | 1017.2 |
| 20260510132031 | 65 | 294 | 2.0 | 5.0 | 0.00 | 0.00 | 0.00 | 87 | 1017.1 |
| 20260510131541 | 65 | 260 | 1.0 | 4.0 | 0.00 | 0.00 | 0.00 | 88 | 1017.2 |
| 20260510131031 | 65 | 255 | 1.0 | 4.0 | 0.00 | 0.00 | 0.00 | 88 | 1017.2 |
| 20260510130528 | 65 | 331 | 0.0 | 4.0 | 0.00 | 0.00 | 0.00 | 88 | 1017.3 |
| 20260510130039 | 65 | 0 | 1.0 | 4.0 | 0.00 | 0.00 | 0.00 | 88 | 1017.2 |
| 20260510125529 | 65 | 0 | 1.0 | 4.0 | 0.00 | 0.00 | 0.00 | 89 | 1017.2 |
| 20260510125031 | 64 | 323 | 1.0 | 4.0 | 0.00 | 0.00 | 0.00 | 90 | 1017.1 |
| 20260510124546 | 64 | 323 | 1.0 | 4.0 | 0.00 | 0.00 | 0.00 | 90 | 1017.1 |
| 20260510124029 | 63 | 319 | 0.0 | 4.0 | 0.00 | 0.00 | 0.00 | 91 | 1017.1 |
| 20260510123531 | 63 | 319 | 0.0 | 3.0 | 0.00 | 0.00 | 0.00 | 91 | 1017.1 |
| 20260510123040 | 63 | 0 | 0.0 | 4.0 | 0.00 | 0.00 | 0.00 | 91 | 1017.1 |
| 20260510122530 | 63 | 319 | 1.0 | 4.0 | 0.00 | 0.00 | 0.00 | 91 | 1017.1 |
| 20260510122030 | 63 | 317 | 1.0 | 4.0 | 0.00 | 0.00 | 0.00 | 92 | 1017.0 |
| 20260510121541 | 62 | 317 | 0.0 | 5.0 | 0.00 | 0.00 | 0.00 | 92 | 1017.0 |
| 20260510121030 | 62 | 316 | 2.0 | 5.0 | 0.00 | 0.00 | 0.00 | 92 | 1016.8 |
| 20260510120532 | 62 | 315 | 1.0 | 5.0 | 0.00 | 0.00 | 0.00 | 92 | 1016.6 |
| 20260510120042 | 62 | 0 | 1.0 | 4.0 | 0.00 | 0.00 | 0.00 | 92 | 1016.5 |
| 20260510115531 | 62 | 346 | 1.0 | 4.0 | 0.00 | 0.00 | 0.00 | 92 | 1016.4 |
| 20260510115031 | 62 | 0 | 1.0 | 5.0 | 0.00 | 0.00 | 0.00 | 92 | 1016.3 |
| 20260510114537 | 62 | 352 | 2.0 | 5.0 | 0.00 | 0.00 | 0.00 | 92 | 1016.3 |
| 20260510114029 | 62 | 329 | 1.0 | 6.0 | 0.00 | 0.00 | 0.00 | 92 | 1016.2 |
| 20260510113531 | 62 | 336 | 2.0 | 6.0 | 0.00 | 0.00 | 0.00 | 92 | 1016.2 |
| 20260510113043 | 62 | 350 | 1.0 | 4.0 | 0.00 | 0.00 | 0.00 | 93 | 1016.1 |
| 20260510112531 | 62 | 0 | 0.0 | 7.0 | 0.00 | 0.00 | 0.00 | 93 | 1016.0 |
| 20260510112030 | 62 | 355 | 3.0 | 7.0 | 0.00 | 0.00 | 0.00 | 93 | 1016.0 |
| 20260510111546 | 62 | 340 | 2.0 | 5.0 | 0.00 | 0.00 | 0.00 | 93 | 1015.9 |
| 20260510111031 | 62 | 0 | 1.0 | 5.0 | 0.00 | 0.00 | 0.00 | 93 | 1015.8 |
| 20260510110530 | 62 | 334 | 1.0 | 5.0 | 0.00 | 0.00 | 0.00 | 93 | 1015.8 |
| 20260510110043 | 62 | 331 | 2.0 | 5.0 | 0.00 | 0.00 | 0.00 | 93 | 1015.8 |
| 20260510105527 | 62 | 344 | 2.0 | 5.0 | 0.00 | 0.00 | 0.00 | 93 | 1015.8 |
| 20260510105033 | 61 | 346 | 1.0 | 4.0 | 0.00 | 0.00 | 0.00 | 93 | 1015.7 |
| 20260510104552 | 61 | 0 | 0.0 | 4.0 | 0.00 | 0.00 | 0.00 | 93 | 1015.7 |
| 20260510104029 | 61 | 0 | 0.0 | 3.0 | 0.00 | 0.00 | 0.00 | 93 | 1015.6 |
| 20260510103527 | 61 | 309 | 0.0 | 4.0 | 0.00 | 0.00 | 0.00 | 93 | 1015.4 |
| 20260510103039 | 61 | 0 | 0.0 | 4.0 | 0.00 | 0.00 | 0.00 | 93 | 1015.4 |
| 20260510102529 | 61 | 311 | 1.0 | 5.0 | 0.00 | 0.00 | 0.00 | 93 | 1015.3 |
| 20260510102031 | 60 | 304 | 1.0 | 5.0 | 0.00 | 0.00 | 0.00 | 93 | 1015.3 |
| 20260510101549 | 60 | 314 | 1.0 | 4.0 | 0.00 | 0.00 | 0.00 | 93 | 1015.2 |
| 20260510101033 | 60 | 313 | 0.0 | 3.0 | 0.00 | 0.00 | 0.00 | 93 | 1015.2 |
| 20260510100533 | 60 | 310 | 0.0 | 3.0 | 0.00 | 0.00 | 0.00 | 93 | 1015.2 |
| 20260510100052 | 59 | 0 | 0.0 | 4.0 | 0.00 | 0.00 | 0.00 | 93 | 1015.2 |
| 20260510095533 | 59 | 0 | 0.0 | 4.0 | 0.00 | 0.00 | 0.00 | 93 | 1015.2 |
| 20260510095029 | 59 | 308 | 0.0 | 4.0 | 0.00 | 0.00 | 0.00 | 93 | 1015.3 |
| 20260510094539 | 59 | 0 | 0.0 | 2.0 | 0.00 | 0.00 | 0.00 | 92 | 1015.2 |
| 20260510094032 | 58 | 0 | 0.0 | 0.0 | 0.00 | 0.00 | 0.00 | 92 | 1015.1 |
| 20260510093532 | 58 | 0 | 0.0 | 0.0 | 0.00 | 0.00 | 0.00 | 92 | 1015.1 |
| 20260510093046 | 58 | 0 | 0.0 | 0.0 | 0.00 | 0.00 | 0.00 | 92 | 1015.0 |
| 20260510092531 | 58 | 0 | 0.0 | 0.0 | 0.00 | 0.00 | 0.00 | 92 | 1014.8 |
| 20260510092032 | 58 | 0 | 0.0 | 0.0 | 0.00 | 0.00 | 0.00 | 91 | 1014.8 |
| 20260510091547 | 58 | 0 | 0.0 | 0.0 | 0.00 | 0.00 | 0.00 | 91 | 1014.6 |
| 20260510091032 | 58 | 0 | 0.0 | 0.0 | 0.00 | 0.00 | 0.00 | 91 | 1014.5 |
| 20260510090530 | 58 | 0 | 0.0 | 0.0 | 0.00 | 0.00 | 0.00 | 91 | 1014.4 |
| 20260510090044 | 58 | 0 | 0.0 | 0.0 | 0.00 | 0.00 | 0.00 | 91 | 1014.4 |
| 20260510085532 | 58 | 0 | 0.0 | 0.0 | 0.00 | 0.00 | 0.00 | 91 | 1014.3 |
| 20260510085033 | 58 | 0 | 0.0 | 0.0 | 0.00 | 0.00 | 0.00 | 91 | 1014.3 |
| 20260510084557 | 58 | 0 | 0.0 | 0.0 | 0.00 | 0.00 | 0.00 | 91 | 1014.3 |
| 20260510084032 | 59 | 0 | 0.0 | 0.0 | 0.00 | 0.00 | 0.00 | 91 | 1014.3 |
| 20260510083534 | 59 | 0 | 0.0 | 0.0 | 0.00 | 0.00 | 0.00 | 91 | 1014.2 |
| 20260510083056 | 59 | 0 | 0.0 | 0.0 | 0.00 | 0.00 | 0.00 | 91 | 1014.1 |
| 20260510082532 | 59 | 0 | 0.0 | 0.0 | 0.00 | 0.00 | 0.00 | 91 | 1014.1 |
| 20260510082032 | 59 | 0 | 0.0 | 0.0 | 0.00 | 0.00 | 0.00 | 91 | 1014.1 |
| 20260510081547 | 59 | 0 | 0.0 | 0.0 | 0.00 | 0.00 | 0.00 | 91 | 1014.1 |
| 20260510081033 | 59 | 0 | 0.0 | 0.0 | 0.00 | 0.00 | 0.00 | 91 | 1014.0 |
| 20260510080534 | 59 | 0 | 0.0 | 0.0 | 0.00 | 0.00 | 0.00 | 91 | 1014.0 |
| 20260510080046 | 60 | 0 | 0.0 | 0.0 | 0.00 | 0.00 | 0.00 | 91 | 1014.0 |
| 20260510075532 | 60 | 0 | 0.0 | 1.0 | 0.00 | 0.00 | 0.00 | 91 | 1014.0 |
| 20260510075033 | 60 | 0 | 0.0 | 1.0 | 0.00 | 0.00 | 0.00 | 90 | 1013.9 |
| 20260510074553 | 60 | 0 | 0.0 | 0.0 | 0.00 | 0.00 | 0.00 | 90 | 1013.9 |
| 20260510074032 | 60 | 0 | 0.0 | 0.0 | 0.00 | 0.00 | 0.00 | 90 | 1013.8 |
| 20260510073532 | 60 | 0 | 0.0 | 0.0 | 0.00 | 0.00 | 0.00 | 90 | 1013.8 |
| 20260510073049 | 60 | 0 | 0.0 | 0.0 | 0.00 | 0.00 | 0.00 | 90 | 1014.0 |
| 20260510072534 | 60 | 0 | 0.0 | 0.0 | 0.00 | 0.00 | 0.00 | 90 | 1014.0 |
| 20260510072038 | 61 | 0 | 0.0 | 0.0 | 0.00 | 0.00 | 0.00 | 90 | 1013.9 |
| 20260510071543 | 61 | 0 | 0.0 | 1.0 | 0.00 | 0.00 | 0.00 | 90 | 1013.9 |
| 20260510071032 | 61 | 0 | 0.0 | 1.0 | 0.00 | 0.00 | 0.00 | 90 | 1013.9 |
| 20260510070536 | 61 | 0 | 0.0 | 1.0 | 0.00 | 0.00 | 0.00 | 90 | 1013.8 |
| 20260510070042 | 61 | 0 | 0.0 | 1.0 | 0.00 | 0.00 | 0.00 | 90 | 1013.8 |
| 20260510065532 | 61 | 0 | 0.0 | 0.0 | 0.00 | 0.00 | 0.00 | 90 | 1013.9 |
| 20260510065032 | 61 | 0 | 0.0 | 0.0 | 0.00 | 0.00 | 0.00 | 90 | 1014.0 |
| 20260510064547 | 61 | 0 | 0.0 | 0.0 | 0.00 | 0.00 | 0.00 | 90 | 1014.0 |
| 20260510064032 | 61 | 0 | 0.0 | 0.0 | 0.00 | 0.00 | 0.00 | 89 | 1013.9 |
| 20260510063532 | 61 | 0 | 0.0 | 0.0 | 0.00 | 0.00 | 0.00 | 89 | 1013.9 |
| 20260510063045 | 62 | 0 | 0.0 | 0.0 | 0.00 | 0.00 | 0.00 | 89 | 1014.0 |
| 20260510062530 | 62 | 0 | 0.0 | 0.0 | 0.00 | 0.00 | 0.00 | 89 | 1013.9 |
| 20260510062031 | 62 | 0 | 0.0 | 0.0 | 0.00 | 0.00 | 0.00 | 89 | 1013.8 |
| 20260510061554 | 62 | 0 | 0.0 | 2.0 | 0.00 | 0.00 | 0.00 | 89 | 1013.8 |
| 20260510061033 | 62 | 0 | 0.0 | 2.0 | 0.00 | 0.00 | 0.00 | 89 | 1013.9 |
| 20260510060534 | 62 | 0 | 0.0 | 2.0 | 0.00 | 0.00 | 0.00 | 89 | 1014.0 |
| 20260510060046 | 62 | 0 | 0.0 | 0.0 | 0.00 | 0.00 | 0.00 | 88 | 1014.1 |
| 20260510055533 | 62 | 0 | 0.0 | 0.0 | 0.00 | 0.00 | 0.00 | 88 | 1014.0 |
| 20260510055033 | 62 | 0 | 0.0 | 0.0 | 0.00 | 0.00 | 0.00 | 88 | 1014.0 |
| 20260510054540 | 63 | 0 | 0.0 | 0.0 | 0.00 | 0.00 | 0.00 | 88 | 1014.1 |
| 20260510054034 | 63 | 0 | 0.0 | 0.0 | 0.00 | 0.00 | 0.00 | 88 | 1014.1 |
| 20260510053533 | 63 | 0 | 0.0 | 1.0 | 0.00 | 0.00 | 0.00 | 88 | 1014.1 |
| 20260510053041 | 63 | 0 | 0.0 | 2.0 | 0.00 | 0.00 | 0.00 | 88 | 1014.2 |
| 20260510052534 | 63 | 0 | 0.0 | 2.0 | 0.00 | 0.00 | 0.00 | 88 | 1014.3 |
| 20260510052034 | 63 | 192 | 0.0 | 2.0 | 0.00 | 0.00 | 0.00 | 88 | 1014.2 |
| 20260510051544 | 63 | 0 | 0.0 | 1.0 | 0.00 | 0.00 | 0.00 | 87 | 1014.2 |
| 20260510051032 | 63 | 0 | 0.0 | 1.0 | 0.00 | 0.00 | 0.00 | 87 | 1014.4 |
| 20260510050531 | 64 | 0 | 0.0 | 2.0 | 0.00 | 0.00 | 0.00 | 87 | 1014.3 |
| 20260510050045 | 64 | 0 | 0.0 | 2.0 | 0.00 | 0.00 | 0.00 | 87 | 1014.5 |
| 20260510045533 | 64 | 0 | 0.0 | 0.0 | 0.00 | 0.00 | 0.00 | 87 | 1014.4 |
| 20260510045032 | 64 | 0 | 0.0 | 0.0 | 0.00 | 0.00 | 0.00 | 87 | 1014.4 |
| 20260510044542 | 64 | 0 | 0.0 | 1.0 | 0.00 | 0.00 | 0.00 | 87 | 1014.4 |
| 20260510044033 | 64 | 0 | 0.0 | 1.0 | 0.00 | 0.00 | 0.00 | 87 | 1014.4 |
| 20260510043531 | 64 | 0 | 0.0 | 3.0 | 0.00 | 0.00 | 0.00 | 87 | 1014.4 |
| 20260510043043 | 64 | 0 | 0.0 | 4.0 | 0.00 | 0.00 | 0.00 | 86 | 1014.5 |
| 20260510042531 | 64 | 192 | 1.0 | 5.0 | 0.00 | 0.00 | 0.00 | 86 | 1014.5 |
| 20260510042035 | 65 | 192 | 1.0 | 5.0 | 0.00 | 0.00 | 0.00 | 86 | 1014.5 |
| 20260510041544 | 65 | 194 | 2.0 | 5.0 | 0.00 | 0.00 | 0.00 | 86 | 1014.5 |
| 20260510041034 | 65 | 219 | 1.0 | 6.0 | 0.00 | 0.00 | 0.00 | 86 | 1014.6 |
| 20260510040532 | 65 | 227 | 2.0 | 6.0 | 0.00 | 0.00 | 0.00 | 86 | 1014.5 |
| 20260510040055 | 65 | 200 | 3.0 | 9.0 | 0.00 | 0.00 | 0.00 | 86 | 1014.6 |
| 20260510035531 | 65 | 206 | 3.0 | 9.0 | 0.00 | 0.00 | 0.00 | 86 | 1014.5 |
| 20260510035032 | 65 | 238 | 2.0 | 8.0 | 0.00 | 0.00 | 0.00 | 85 | 1014.7 |
| 20260510034547 | 65 | 221 | 3.0 | 8.0 | 0.00 | 0.00 | 0.00 | 85 | 1014.8 |
| 20260510034033 | 65 | 201 | 2.0 | 9.0 | 0.00 | 0.00 | 0.00 | 85 | 1014.7 |
| 20260510033534 | 65 | 220 | 2.0 | 9.0 | 0.00 | 0.00 | 0.00 | 85 | 1014.8 |
| 20260510033041 | 65 | 229 | 3.0 | 7.0 | 0.00 | 0.00 | 0.00 | 85 | 1014.8 |
| 20260510032533 | 66 | 215 | 3.0 | 7.0 | 0.00 | 0.00 | 0.00 | 85 | 1014.8 |
| 20260510032035 | 66 | 211 | 1.0 | 6.0 | 0.00 | 0.00 | 0.00 | 84 | 1014.5 |
| 20260510031555 | 66 | 221 | 3.0 | 6.0 | 0.00 | 0.00 | 0.00 | 84 | 1014.6 |
| 20260510031033 | 66 | 224 | 2.0 | 7.0 | 0.00 | 0.00 | 0.00 | 84 | 1014.5 |
| 20260510030534 | 66 | 193 | 2.0 | 7.0 | 0.00 | 0.00 | 0.00 | 84 | 1014.4 |
| 20260510030038 | 66 | 226 | 2.0 | 6.0 | 0.00 | 0.00 | 0.00 | 83 | 1014.4 |
| 20260510025533 | 66 | 201 | 2.0 | 6.0 | 0.00 | 0.00 | 0.00 | 83 | 1014.2 |
| 20260510025033 | 66 | 211 | 3.0 | 6.0 | 0.00 | 0.00 | 0.00 | 83 | 1014.2 |
| 20260510024545 | 66 | 191 | 3.0 | 6.0 | 0.00 | 0.00 | 0.00 | 83 | 1014.2 |
| 20260510024029 | 66 | 241 | 2.0 | 5.0 | 0.00 | 0.00 | 0.00 | 82 | 1014.2 |
| 20260510023531 | 66 | 202 | 2.0 | 5.0 | 0.00 | 0.00 | 0.00 | 82 | 1014.1 |
| 20260510023044 | 66 | 196 | 2.0 | 5.0 | 0.00 | 0.00 | 0.00 | 82 | 1014.1 |
| 20260510022534 | 66 | 205 | 1.0 | 5.0 | 0.00 | 0.00 | 0.00 | 82 | 1014.0 |
| 20260510022033 | 66 | 209 | 1.0 | 5.0 | 0.00 | 0.00 | 0.00 | 82 | 1013.7 |
| 20260510021540 | 67 | 210 | 2.0 | 6.0 | 0.00 | 0.00 | 0.00 | 81 | 1013.7 |
| 20260510021031 | 67 | 212 | 2.0 | 7.0 | 0.00 | 0.00 | 0.00 | 81 | 1013.6 |
| 20260510020533 | 67 | 200 | 2.0 | 7.0 | 0.00 | 0.00 | 0.00 | 81 | 1013.7 |
| 20260510020041 | 67 | 199 | 3.0 | 7.0 | 0.00 | 0.00 | 0.00 | 81 | 1013.5 |
| 20260510015536 | 67 | 194 | 3.0 | 7.0 | 0.00 | 0.00 | 0.00 | 81 | 1013.6 |
| 20260510015030 | 67 | 196 | 2.0 | 7.0 | 0.00 | 0.00 | 0.00 | 80 | 1013.5 |
| 20260510014546 | 67 | 193 | 2.0 | 6.0 | 0.00 | 0.00 | 0.00 | 80 | 1013.4 |
| 20260510014032 | 67 | 213 | 3.0 | 6.0 | 0.00 | 0.00 | 0.00 | 80 | 1013.3 |
| 20260510013533 | 67 | 238 | 3.0 | 6.0 | 0.00 | 0.00 | 0.00 | 80 | 1013.3 |
| 20260510013054 | 67 | 156 | 2.0 | 6.0 | 0.00 | 0.00 | 0.00 | 80 | 1013.2 |
| 20260510012531 | 68 | 206 | 1.0 | 3.0 | 0.00 | 0.00 | 0.00 | 79 | 1013.3 |
| 20260510012034 | 68 | 209 | 0.0 | 4.0 | 0.00 | 0.00 | 0.00 | 79 | 1013.3 |
| 20260510011541 | 68 | 192 | 1.0 | 5.0 | 0.00 | 0.00 | 0.00 | 78 | 1013.2 |
| 20260510011032 | 68 | 190 | 2.0 | 6.0 | 0.00 | 0.00 | 0.00 | 78 | 1013.2 |
| 20260510010532 | 68 | 216 | 2.0 | 6.0 | 0.00 | 0.00 | 0.00 | 78 | 1013.2 |
| 20260510010041 | 68 | 219 | 3.0 | 6.0 | 0.00 | 0.00 | 0.00 | 78 | 1013.0 |
| 20260510005531 | 68 | 212 | 2.0 | 5.0 | 0.00 | 0.00 | 0.00 | 77 | 1012.9 |
| 20260510005032 | 68 | 218 | 2.0 | 5.0 | 0.00 | 0.00 | 0.00 | 77 | 1012.8 |
| 20260510004539 | 69 | 225 | 3.0 | 5.0 | 0.00 | 0.00 | 0.00 | 77 | 1012.9 |
| 20260510004031 | 69 | 210 | 1.0 | 5.0 | 0.00 | 0.00 | 0.00 | 77 | 1012.9 |
| 20260510003533 | 69 | 203 | 1.0 | 3.0 | 0.00 | 0.00 | 0.00 | 76 | 1012.8 |
| 20260510003040 | 69 | 0 | 0.0 | 4.0 | 0.00 | 0.00 | 0.00 | 75 | 1012.7 |
| 20260510002532 | 69 | 209 | 2.0 | 4.0 | 0.00 | 0.00 | 0.00 | 75 | 1012.8 |
| 20260510002034 | 70 | 221 | 0.0 | 3.0 | 0.00 | 0.00 | 0.00 | 75 | 1012.8 |
| 20260510001535 | 70 | 221 | 1.0 | 4.0 | 0.00 | 0.00 | 0.00 | 74 | 1012.8 |
| 20260510001032 | 70 | 221 | 1.0 | 5.0 | 0.00 | 0.00 | 0.00 | 74 | 1012.7 |
| 20260510000531 | 70 | 221 | 2.0 | 5.0 | 0.00 | 0.00 | 0.00 | 73 | 1012.5 |
| 20260510000043 | 70 | 215 | 3.0 | 5.0 | 0.00 | 0.00 | 0.00 | 73 | 1012.6 |
| 20260509235531 | 70 | 215 | 2.0 | 5.0 | 0.00 | 0.00 | 0.00 | 73 | 1012.6 |
| 20260509235033 | 70 | 211 | 2.0 | 6.0 | 0.00 | 0.00 | 0.00 | 72 | 1012.5 |
| 20260509234542 | 71 | 207 | 2.0 | 6.0 | 0.00 | 0.00 | 0.00 | 72 | 1012.3 |